Weather History for Leesburg, FL

Change the Weather History Date:

Tuesday, June 10, 2014

  Actual Average Record
Temperature  
Mean Temperature 82 °F -  
Max Temperature 93 °F 90 °F 96 °F (1985)
Min Temperature 72 °F 70 °F 63 °F (2000)
Cooling Degree Days 18    
Growing Degree Days 32 (Base 50)    
Moisture  
Dew Point 71 °F    
Average Humidity 81    
Maximum Humidity 94    
Minimum Humidity 45    
Precipitation  
Precipitation 0.38 in - - ()
Sea Level Pressure  
Sea Level Pressure 30.01 in    
Wind  
Wind Speed 4 mph (SSW)    
Max Wind Speed 23 mph    
Max Gust Speed 36 mph    
Visibility 8 miles    
Events Fog , Rain , Thunderstorm    
Averages and records for this station are not official NWS values.
T = Trace of Precipitation, MM = Missing Value Source: NWS Daily Summary

Daily Weather History Graph

Daily Weather History Graph

Search for Another Location

Airport:

Trip Planner

Search our weather history database for the weather conditions in past years. The results will help you decide how hot, cold, wet, or windy it might be!

Date:

Astronomy

Jun. 10, 2014 Rise Set
Actual Time 6:28 AM EDT 8:25 PM EDT
Civil Twilight 6:01 AM EDT 8:52 PM EDT
Nautical Twilight 5:28 AM EDT 9:24 PM EDT
Astronomical Twilight 4:54 AM EDT 9:59 PM EDT
Moon 5:59 PM EDT (6/10) 4:20 AM EDT (6/10)
Length of Visible Light 14h 50m
Length of Day
13h 56m
Waxing Gibbous, 92% of the Moon is Illuminated
Jun 10
Waxing Gibbous
Jun 13
Full
Jun 19
Last Quarter
Jun 27
New
Jul 5
First Quarter

Hourly Weather History & Observations

Time (EDT) Temp. Heat Index Dew Point Humidity Pressure Visibility Wind Dir Wind Speed Gust Speed Precip Events Conditions
12:53 AM 77.0 °F - 72.0 °F 84% 30.01 in 10.0 mi Calm Calm - N/A   Clear
1:53 AM 78.1 °F - 72.0 °F 81% 30.00 in 10.0 mi Calm Calm - N/A   Clear
2:53 AM 75.9 °F - 73.0 °F 91% 29.99 in 10.0 mi Calm Calm - N/A   Clear
3:53 AM 75.9 °F - 73.0 °F 91% 30.00 in 10.0 mi Calm Calm - N/A   Clear
4:53 AM 75.0 °F - 72.0 °F 90% 29.99 in 10.0 mi Calm Calm - N/A   Clear
5:53 AM 73.9 °F - 72.0 °F 93% 30.00 in 10.0 mi Calm Calm - N/A   Clear
6:53 AM 75.0 °F - 72.0 °F 90% 30.00 in 10.0 mi Calm Calm - N/A   Clear
7:53 AM 80.1 °F 84.2 °F 73.0 °F 79% 30.01 in 10.0 mi Calm Calm - N/A   Clear
8:53 AM 81.0 °F 86.7 °F 75.0 °F 82% 30.02 in 10.0 mi SSE 5.8 mph - N/A   Clear
9:53 AM 82.9 °F 90.2 °F 75.0 °F 77% 30.02 in 10.0 mi South 5.8 mph - N/A   Clear
11:53 AM 88.0 °F 96.5 °F 73.9 °F 63% 30.01 in 10.0 mi SE 4.6 mph - N/A   Clear
12:53 PM 90.0 °F 96.9 °F 72.0 °F 55% 30.01 in 10.0 mi Variable 4.6 mph - N/A   Clear
1:53 PM 91.9 °F 98.4 °F 71.1 °F 50% 29.99 in 10.0 mi SE 5.8 mph - N/A   Clear
3:34 PM 93.0 °F 97.9 °F 69.1 °F 45% 29.95 in 10.0 mi Calm Calm - N/A Thunderstorm Partly Cloudy
3:53 PM 91.9 °F 96.9 °F 69.1 °F 47% 29.93 in 10.0 mi NNW 6.9 mph - N/A Thunderstorm Thunderstorm
4:09 PM 88.0 °F 93.8 °F 71.1 °F 57% 29.95 in 10.0 mi WSW 13.8 mph 23.0 mph N/A Thunderstorm Overcast
4:27 PM 80.1 °F 83.2 °F 70.0 °F 71% 29.97 in 10.0 mi SW 23.0 mph 35.7 mph N/A Thunderstorm Thunderstorm
4:43 PM 77.0 °F - 71.1 °F 82% 29.98 in 1.5 mi WSW 20.7 mph 29.9 mph 0.15 in Rain , Thunderstorm Heavy Thunderstorms and Rain
4:49 PM 73.4 °F - 71.6 °F 94% 29.98 in 0.2 mi WSW 19.6 mph 29.9 mph 0.51 in Fog , Rain , Thunderstorm Heavy Thunderstorms and Rain
5:10 PM 73.9 °F - 70.0 °F 87% 30.01 in 2.5 mi WSW 9.2 mph - 0.17 in Rain , Thunderstorm Light Thunderstorms and Rain
5:16 PM 73.0 °F - 70.0 °F 90% 30.01 in 3.0 mi SW 9.2 mph - 0.19 in Rain , Thunderstorm Thunderstorms and Rain
5:35 PM 73.9 °F - 70.0 °F 87% 30.04 in 10.0 mi East 16.1 mph - 0.19 in Rain , Thunderstorm Light Rain
5:42 PM 73.9 °F - 71.1 °F 91% 30.05 in 10.0 mi ESE 12.7 mph - 0.19 in Rain , Thunderstorm Light Rain
5:53 PM 73.0 °F - 70.0 °F 90% 30.06 in 10.0 mi ESE 17.3 mph 21.9 mph 0.19 in Rain , Thunderstorm Light Rain
6:07 PM 73.0 °F - 69.1 °F 87% 30.06 in 7.0 mi East 10.4 mph - 0.02 in Rain , Thunderstorm Light Thunderstorms and Rain
6:31 PM 73.0 °F - 70.0 °F 90% 30.05 in 10.0 mi Calm Calm - 0.04 in Rain , Thunderstorm Light Rain
6:44 PM 73.0 °F - 70.0 °F 90% 30.05 in 7.0 mi NW 5.8 mph - 0.05 in Rain Light Rain
6:51 PM 73.4 °F - 69.8 °F 88% 30.06 in 4.0 mi NNW 3.5 mph - 0.07 in Rain , Thunderstorm Light Rain
6:53 PM 73.0 °F - 69.1 °F 87% 30.06 in 4.0 mi NNW 4.6 mph - 0.07 in Rain , Thunderstorm Light Rain
7:23 PM 72.0 °F - 70.0 °F 93% 30.06 in 6.0 mi SSE 3.5 mph - 0.08 in Rain Light Rain
7:53 PM 73.9 °F - 69.1 °F 85% 30.04 in 10.0 mi SSE 6.9 mph - 0.10 in Rain Light Rain
8:53 PM 73.0 °F - 70.0 °F 90% 30.01 in 10.0 mi West 8.1 mph - 0.02 in Rain Light Rain
9:53 PM 72.0 °F - 69.1 °F 91% 30.01 in 10.0 mi Calm Calm - 0.00 in   Mostly Cloudy
11:53 PM 73.0 °F - 69.1 °F 87% 30.03 in 10.0 mi South 6.9 mph - N/A   Clear